www.pogodaiklimat.ru

Погода и климат >> Архив погоды >> Великобритания >> Спадедэм


ПОГОДА в Спадедэме

  • Прогноз погоды в Спадедэме
  • Монитор погоды в Спадедэме

АРХИВ ПОГОДЫ в Спадедэме

Время (UTC), дата Ветер
(напр.,м/с)
 
Видим.   Явления Облачность Т
(С)
Тd
(С)
f
(%)
Тe
(С)
Тes
(С)
Комфортность P
(гПа)
Po
(гПа)
Тmin
(С)
Tmax
(С)
R
(мм)
R24
(мм)
S
(см)
10 10.08 0 5000 м сильн. дождь н/о +15.2 +15.1 99 989.3 956.5
11 10.08 0 3800 м сильн. дождь н/о +15.3 +15.2 99 989.5 956.7
12 10.08 0 7000 м дождь н/о +16.1 +16.0 99 989.5 956.8 52
13 10.08 0 2300 м сильн. дождь н/о +15.4 +15.2 99 990.2 957.4
14 10.08 0 300 м дождь н/о +15.4 +15.4 100 991.0 958.2
15 10.08 0 400 м туман н/о +15.5 +15.5 100 992.4 959.5
16 10.08 0 6000 м в посл. час дождь н/о +15.2 +15.2 100 993.4 960.5
17 10.08 0 1300 м ливневой дождь н/о +14.9 +14.9 100 994.3 961.3
18 10.08 0 7000 м слаб. морось н/о +15.0 +15.0 100 995.2 962.2 +16.3 62
19 10.08 0 8000 м в посл. час дождь н/о +15.0 +15.0 100 996.1 963.1
20 10.08 0 7000 м дымка н/о +14.8 +14.7 99 997.0 963.9
21 10.08 0 8000 м дымка н/о +14.5 +14.3 99 997.9 964.7
22 10.08 0 300 м ливневой дождь н/о +14.1 +14.0 99 998.4 965.1
23 10.08 0 2600 м сильн. дождь н/о +13.6 +13.6 100 999.0 965.7
00 11.08 0 5000 м слаб. дождь н/о +13.3 +13.3 100 999.4 966.1 5
01 11.08 0 1800 м слаб. морось н/о +13.1 +13.1 100 999.5 966.1
02 11.08 0 2100 м в посл. час морось н/о +12.9 +12.9 100 999.7 966.3
03 11.08 0 700 м слаб. морось н/о +12.7 +12.7 100 999.9 966.4
04 11.08 0 2200 м в посл. час дождь н/о +12.6 +12.6 100 1000.6 967.1
05 11.08 0 1000 м сильн. морось н/о +12.3 +12.3 100 1000.9 967.4
06 11.08 0 900 м слаб. морось н/о +12.1 +12.1 100 1001.6 968.1 +12.1 6
07 11.08 0 1800 м слаб. морось н/о +12.3 +12.3 100 1002.1 968.6
08 11.08 0 3100 м в посл. час морось н/о +12.3 +12.3 100 1002.7 969.1
09 11.08 0 500 м морось н/о +12.5 +12.5 100 1003.3 969.7
10 11.08 0 21 км в посл. час морось н/о +12.9 +12.9 100 1003.8 970.2
11 11.08 0 7000 м ливневой дождь н/о +12.8 +12.8 100 1004.4 970.8
12 11.08 0 4400 м сильн. дождь н/о +12.5 +12.5 100 1005.2 971.5 7
13 11.08 0 10 км дождь н/о +13.2 +13.1 99 1005.3 971.8
14 11.08 0 6000 м дождь н/о +13.0 +12.7 98 1005.8 972.2
15 11.08 0 8000 м дождь н/о +12.8 +12.5 98 1006.0 972.3
16 11.08 0 2800 м сильн. дождь н/о +12.4 +12.2 99 1006.2 972.5
17 11.08 0 3400 м дождь н/о +12.2 +12.1 99 1006.3 972.5
18 11.08 0 2500 м дождь н/о +11.8 +11.7 99 1006.8 973.0 +13.2 21
19 11.08 0 700 м сильн. морось н/о +11.2 +11.1 99 1007.5 973.7
20 11.08 0 200 м морось с дождем н/о +10.5 +10.5 100 1007.8 973.8
21 11.08 0 500 м дождь н/о +9.8 +9.8 100 1008.6 974.5
22 11.08 0 200 м дождь н/о +9.5 +9.5 100 1008.9 974.7
23 11.08 0 1000 м дождь н/о +9.4 +9.4 100 1009.2 975.1
00 12.08 З 0 22 км н/о +9.4 +9.4 100 +5 +5 1009.4 975.2 7
01 12.08 0 6000 м дождь н/о +8.8 +8.8 100 1009.9 975.6
02 12.08 0 30 км слаб. дождь н/о +7.9 +7.7 99 1010.4 976.1
03 12.08 0 5000 м слаб. морось н/о +7.8 +7.6 99 1010.8 976.4
04 12.08 0 4000 м слаб. морось н/о +7.8 +7.6 99 1011.1 976.7
05 12.08 0 2700 м слаб. ливневой дождь н/о +7.8 +7.8 100 1011.6 977.2
06 12.08 0 16 км в посл. час дождь н/о +8.0 +8.0 100 1011.9 977.5 +7.7 11
07 12.08 0 28 км н/о +8.4 +8.3 99 1012.3 977.9
08 12.08 0 30 км н/о +9.0 +8.5 97 1012.7 978.4
09 12.08 0 30 км н/о +10.3 +9.5 95 1012.8 978.6
10 12.08 0 40 км н/о +11.1 +8.9 86 1012.9 978.8
11 12.08 0 45 км н/о +11.9 +8.6 80 1012.8 978.8
12 12.08 0 45 км н/о +12.7 +7.3 70 1012.8 978.9
13 12.08 0 45 км н/о +12.6 +6.4 66 1012.8 978.9
14 12.08 З 6 30 км н/о +13.9 +7.6 66 +12 +12 1012.7 979.0
15 12.08 З 7 6000 м ливневой дождь н/о +12.0 +9.2 83 +9 +9 1013.1 979.1
16 12.08 З 7 45 км в посл. час дождь н/о +13.6 +8.8 73 +11 +11 1013.0 979.2
17 12.08 З 2 45 км в посл. час дождь н/о +12.1 +8.2 77 +11 +11 1013.4 979.4
18 12.08 ЮЗ 4 50 км в посл. час дождь н/о +11.6 +10.1 91 +9 +9 1013.6 979.5 +15.2 0.4
19 12.08 З 4 45 км н/о +10.7 +9.4 92 +8 +8 1013.7 979.6
20 12.08 З 6 40 км слаб. ливневой дождь н/о +9.5 +8.2 92 +6 +6 1014.2 979.9
21 12.08 З 3 45 км в посл. час дождь н/о +7.8 +7.2 96 +5 +5 1014.7 980.2
22 12.08 З 4 50 км н/о +8.0 +7.7 98 +4 +4 1014.5 980.0
23 12.08 З 4 50 км н/о +8.6 +7.9 95 +5 +5 1014.3 979.9
00 13.08 З 3 22 км н/о +7.9 +7.5 97 +5 +5 1014.4 979.9 0.0
01 13.08 З 3 15 км н/о +8.8 +8.6 99 +6 +6 1014.1 979.7
02 13.08 З 4 6000 м дымка н/о +9.4 +9.3 99 +6 +6 1014.1 979.8
03 13.08 З 5 1700 м в посл. час туман н/о +8.8 +8.7 99 +5 +5 1014.2 979.8
04 13.08 З 3 800 м туман н/о +8.5 +8.5 100 +6 +6 1014.2 979.8
05 13.08 З 3 1200 м в посл. час туман н/о +8.0 +8.0 100 +5 +5 1014.4 979.9
06 13.08 З 3 300 м туман н/о +8.1 +8.1 100 +5 +5 1014.4 980.0 +7.1 0.0
07 13.08 З 4 2000 м в посл. час туман н/о +8.5 +8.5 100 +5 +5 1014.7 980.2
08 13.08 З 6 40 км в посл. час дождь н/о +10.1 +9.2 94 +6 +6 1014.6 980.4
09 13.08 З 6 30 км н/о +11.1 +8.8 86 +8 +8 1014.5 980.4
10 13.08 З 6 40 км н/о +12.0 +8.6 80 +9 +9 1014.6 980.5
11 13.08 З 6 35 км н/о +13.7 +8.7 72 +12 +12 1014.3 980.5
12 13.08 ЮЗ 7 30 км н/о +14.6 +9.3 70 +13 +13 1014.0 980.4 0.0
13 13.08 З 8 3900 м ливневой дождь н/о +11.1 +8.8 86 +8 +8 1014.6 980.4
14 13.08 З 8 40 км в посл. час дождь н/о +14.0 +9.3 73 +12 +12 1014.1 980.4
15 13.08 З 7 6000 м ливневой дождь н/о +10.6 +8.3 86 +7 +7 1014.8 980.6
16 13.08 З 4 13 км дождь н/о +10.3 +9.6 95 +8 +8 1014.8 980.6
17 13.08 ЮЗ 5 24 км в посл. час дождь н/о +12.4 +10.3 87 +10 +10 1014.2 980.2
18 13.08 З 7 35 км в посл. час дождь н/о +12.3 +10.0 86 +9 +9 1014.3 980.4 +15.0 11
19 13.08 З 5 30 км н/о +11.6 +9.4 86 +9 +9 1014.6 980.6
20 13.08 ЮЗ 3 35 км н/о +10.4 +9.1 92 +8 +8 1014.9 980.7
21 13.08 З 3 30 км н/о +9.6 +8.6 93 +7 +7 1014.8 980.4
22 13.08 З 3 20 км н/о +9.1 +8.5 96 +6 +6 1014.7 980.3
23 13.08 З 3 14 км н/о +8.7 +8.1 96 +6 +6 1014.7 980.2
00 14.08 ЮЗ 2 17 км в посл. час дождь н/о +8.9 +8.4 97 +7 +7 1014.3 980.0 0.2
01 14.08 штиль 0 17 км н/о +8.8 +8.3 97 +8 +8 1014.0 979.7
02 14.08 штиль 0 9000 м дымка н/о +8.2 +7.8 97 +7 +7 1013.8 979.4
03 14.08 В 1 1000 м дымка н/о +7.5 +7.1 97 +6 +6 1013.2 978.7
04 14.08 СВ 1 35 км н/о +7.9 +7.7 99 +8 +8 1012.5 978.1
05 14.08 ЮВ 2 25 км слаб. ливневой дождь н/о +8.8 +8.4 97 +7 +7 1011.9 977.6
06 14.08 ЮВ 3 19 км слаб. дождь н/о +9.6 +9.3 98 +7 +7 1011.3 977.1 +7.3 0.6
07 14.08 В 2 15 км слаб. дождь н/о +9.9 +9.5 97 +8 +8 1010.9 976.8
08 14.08 В 3 28 км слаб. дождь н/о +10.9 +10.3 96 +9 +9 1010.3 976.3
09 14.08 В 3 45 км в посл. час дождь н/о +11.9 +10.9 94 +10 +10 1009.6 975.7
10 14.08 ЮВ 4 5000 м слаб. морось н/о +12.5 +11.3 92 +11 +11 1008.9 975.1
11 14.08 В 4 50 км в посл. час дождь н/о +12.8 +11.6 92 +11 +11 1008.2 974.5
12 14.08 ЮВ 5 19 км н/о +14.0 +12.2 89 +12 +12 1007.3 973.8 2
13 14.08 ЮВ 5 40 км в посл. час дождь н/о +13.9 +12.3 90 +12 +12 1006.8 973.3
14 14.08 В 4 4500 м ливневой дождь н/о +13.2 +12.3 94 +11 +11 1006.2 972.6
15 14.08 В 3 5000 м слаб. морось н/о +13.8 +13.3 97 +13 +13 1005.4 971.9
16 14.08 В 3 13 км в посл. час дождь н/о +13.7 +13.1 96 +12 +12 1004.6 971.1
17 14.08 В 2 13 км слаб. морось н/о +13.8 +13.4 97 +13 +13 1003.9 970.4
18 14.08 В 3 5000 м слаб. морось н/о +13.5 +13.2 98 +12 +12 1003.4 969.9 +14.2 2
19 14.08 ЮВ 2 6000 м в посл. час морось н/о +13.7 +13.5 99 +13 +13 1002.9 969.5
20 14.08 В 2 18 км н/о +13.7 +13.5 99 +13 +13 1002.6 969.2
21 14.08 ЮВ 1 10 км н/о +13.6 +13.4 99 +14 +14 1002.3 968.9
22 14.08 ЮВ 1 3400 м слаб. морось н/о +13.6 +13.5 99 +14 +14 1001.9 968.5
23 14.08 ЮЗ 6 5000 м дождь н/о +14.1 +14.0 99 +12 +12 1001.6 968.3
00 15.08 ЮЗ 7 40 км н/о +13.5 +13.5 100 +11 +11 1001.5 968.1 1
01 15.08 З 7 10 км в посл. час туман н/о +12.9 +12.9 100 +10 +10 1001.7 968.2
02 15.08 З 6 2600 м сильн. ливневой дождь н/о +13.2 +13.2 100 +11 +11 1001.2 967.8
03 15.08 З 7
{14}
2100 м дождь н/о +13.2 +13.2 100 +11 +11 1001.0 967.5
04 15.08 З 8
{13}
14 км в посл. час дождь н/о +13.0 +13.0 100 +10 +10 1001.1 967.6
05 15.08 З 9
{13}
3500 м дымка н/о +12.9 +12.9 100 +10 +10 1001.3 967.8
06 15.08 З 8 11 км в посл. час дождь н/о +12.6 +12.6 100 +9 +9 1002.0 968.5 +12.6 9
07 15.08 З 9 7000 м дымка н/о +12.8 +12.7 99 +10 +10 1002.8 969.3
08 15.08 З 9
{13}
6000 м в посл. час дождь н/о +12.9 +12.5 97 +10 +10 1003.8 970.3
09 15.08 З 10
{15}
50 км в посл. час дождь н/о +13.0 +11.5 91 +10 +10 1004.8 971.2
10 15.08 З 7-12
{16}
45 км н/о +13.1 +10.5 84 +11 +11 1006.1 972.5
11 15.08 З 10-15
{15}
35 км н/о +13.5 +8.8 73 +11 +11 1007.0 973.4
12 15.08 З 10
{15}
50 км н/о +14.2 +8.6 69 +11 +11 1007.8 974.3 0.2
13 15.08 З 10
{15}
45 км н/о +15.8 +9.7 67 +14 +14 1008.4 975.0
14 15.08 З 11
{16}
45 км н/о +16.3 +9.4 64 +14 +14 1008.9 975.6
15 15.08 З 11
{16}
35 км н/о +15.9 +7.3 57 +14 +14 1009.7 976.2
16 15.08 З 9
{15}
35 км н/о +15.9 +7.3 57 +14 +14 1010.3 976.9
17 15.08 З 9
{14}
30 км н/о +15.6 +7.9 60 +14 +14 1010.9 977.4
18 15.08 З 8
{13}
40 км н/о +14.7 +7.7 63 +13 +13 1011.7 978.1 +16.6 0.2
19 15.08 З 5 50 км н/о +13.4 +7.8 69 +11 +11 1012.2 978.5
20 15.08 ЮЗ 5 35 км н/о +11.1 +8.8 86 +8 +8 1012.8 978.7
21 15.08 ЮЗ 3 40 км н/о +10.0 +8.2 89 +8 +8 1012.9 978.7
22 15.08 З 5 45 км н/о +10.0 +8.1 88 +7 +7 1012.9 978.7
23 15.08 ЮЗ 3 35 км н/о +9.4 +8.0 91 +7 +7 1012.6 978.3
00 16.08 ЮЗ 5 16 км н/о +11.0 +9.3 89 +8 +8 1011.5 977.5 9
01 16.08 ЮЗ 4 45 км н/о +11.7 +10.1 90 +10 +10 1010.9 976.9
02 16.08 ЮЗ 4 40 км н/о +12.6 +11.6 94 +11 +11 1010.1 976.3
03 16.08 Ю 7 35 км н/о +13.1 +11.9 92 +10 +10 1009.3 975.6
04 16.08 Ю 7 30 км н/о +13.1 +11.4 89 +10 +10 1008.3 974.6
05 16.08 Ю 7 35 км н/о +12.9 +11.0 88 +10 +10 1007.5 973.8
06 16.08 Ю 7 24 км слаб. ливневой дождь н/о +13.2 +11.4 89 +10 +10 1006.4 972.8 +9.1 0.0
07 16.08 Ю 8 11 км дождь н/о +12.8 +11.8 94 +10 +10 1005.8 972.2
08 16.08 Ю 7 10 км дождь н/о +12.5 +12.0 97 +10 +10 1004.7 971.1
09 16.08 Ю 9
{13}
15 км слаб. морось н/о +13.2 +12.5 96 +10 +10 1003.6 970.1
10 16.08 Ю 8 15 км дождь н/о +13.3 +12.7 96 +10 +10 1002.7 969.2
11 16.08 Ю 8 7000 м слаб. морось н/о +13.4 +12.8 96 +10 +10 1001.7 968.3
12 16.08 Ю 8-13
{13}
10 км слаб. морось н/о +14.0 +13.4 96 +11 +11 1000.6 967.2 4
13 16.08 Ю 10-15
{15}
50 км в посл. час дождь н/о +14.7 +13.6 93 +12 +12 999.6 966.4
14 16.08 Ю 8 10 км слаб. морось н/о +14.9 +13.7 93 +13 +13 999.0 965.8
15 16.08 Ю 9
{13}
5000 м слаб. морось н/о +14.7 +13.9 95 +12 +12 998.4 965.2
16 16.08 Ю 8 45 км в посл. час дождь н/о +15.5 +15.0 97 +13 +13 997.4 964.4
17 16.08 Ю 7 45 км н/о +15.8 +14.6 93 +14 +14 996.5 963.6
18 16.08 Ю 6 50 км в посл. час дождь н/о +15.7 +14.6 93 +14 +14 996.1 963.1 +16.0 5
19 16.08 Ю 5 45 км н/о +15.5 +14.4 93 +14 +14 995.0 962.1
20 16.08 Ю 4 30 км слаб. дождь н/о +14.9 +14.8 99 +14 +14 994.5 961.5
21 16.08 ЮЗ 5 3400 м сильн. дождь н/о +15.3 +15.2 99 +14 +14 994.3 961.3
22 16.08 ЮЗ 5 11 км в посл. час дождь н/о +14.1 +13.9 99 +12 +12 994.4 961.3
23 16.08 ЮЗ 5 21 км н/о +13.7 +12.2 91 +12 +12 994.5 961.4
00 17.08 ЮЗ 6 16 км н/о +13.2 +12.4 95 +11 +11 994.5 961.3 9
01 17.08 ЮЗ 6 12 км н/о +13.1 +12.4 96 +11 +11 994.5 961.3
02 17.08 ЮЗ 8-13
{13}
2200 м ливневой дождь н/о +12.9 +12.4 97 +10 +10 994.5 961.3
03 17.08 ЮЗ 7
{14}
12 км в посл. час дождь н/о +12.6 +12.3 98 +10 +10 994.6 961.3
05 17.08 ЮЗ 8 1600 м ливневой дождь н/о +12.5 +12.2 98 +9 +9 993.9 960.6
06 17.08 З 9
{17}
23 км в посл. час дождь н/о +11.8 +11.3 97 +8 +8 995.1 961.7 +11.7 14
07 17.08 З 8 13 км н/о +12.0 +11.5 97 +9 +9 995.8 962.4
08 17.08 З 9
{13}
17 км в посл. час дождь н/о +12.7 +11.8 94 +9 +9 996.3 963.0
09 17.08 З 8
{15}
11 км ливневой дождь н/о +12.0 +11.4 96 +9 +9 996.7 963.3
10 17.08 З 10
{15}
17 км в посл. час дождь н/о +14.1 +11.7 85 +11 +11 996.8 963.6

 

Местоположение метеостанции Спадедэм (Великобритания): широта 55.05 долгота -2.55 высота над уровнем моря 286 м.

В архиве по умолчанию представлена погода в Спадедэме за последнюю неделю. Архивные данные за месяц целиком и за предыдущие месяцы, начиная с января 2011 года, Вы можете получить, выбрав интересующий диапазон дат из раскрывающегося списка и нажав кнопку "Ввод!".


*Определитесь, кто Вы:
робот инопланетянин человек

Внимание! Время в таблицах - всемирное. Для получения местного времени необходимо прибавить поправку, которая равна 0 ч.

Смотрите также архив погоды в соседних городах и на ближайших метеорологических станциях:

Погода в Карлайле (Великобритания) (30 км)
Погода в Лагере Redesdale (Великобритания) (31 км)
Погода в Грэйт Дан Фелле (Великобритания) (42 км)
Погода в Альбермарле (Великобритания) (43 км)
Погода в Эскдейлмьюире (Великобритания) (51 км)
Погода в Варкопе (Великобритания) (54 км)
Погода в Шапе (Великобритания) (62 км)
Погода в Кесвике (Великобритания) (62 км)
Погода в Боулмере (Великобритания) (73 км)
Погода в Чартерхолле (Великобритания) (73 км)

Пояснения к столбцам:

Ветер - указаны скорость ветра в м/с - средняя за 10 мин, порывы в срок и между сроками (в фигурных скобках) и направление, откуда дует ветер: С - северный, СВ - северо-восточный, В - восточный, ЮВ - юго-восточный, Ю - южный, ЮЗ - юго-западный, З - западный, СЗ - северо-западный.
Видимость - горизонтальная дальность видимости в метрах или километрах. При видимости от 1 до 10 км при отсутствии осадков обычно наблюдается дымка, при ухудшении видимости до 1 км и менее - туман. В сухую погоду видимость может ухудшаться дымом, пылью или мглою.
Явления - указаны атмосферные явления, наблюдавшиеся в срок или в последний час перед сроком; фигурными скобками обозначены явления, наблюдавшиеся между сроками (за 1-3 часа до срока); квадратными скобками обозначены град или гололедные отложения с указанием их диаметра в мм.
Облачность - указаны через наклонную черту общая и нижняя облачность в баллах и высота нижней границы облаков в метрах; квадратными скобками обозначены формы облаков: Ci - перистые, Cs - перисто-слоистые, Cc - перисто-кучевые, Ac - высококучевые, As - высокослоистые, Sc - слоисто-кучевые, Ns - слоисто-дождевые, Cu - кучевые, Cb - кучево-дождевые. Подробнее классификацию облаков см. в Атласе облаков (PDF).
T - Температура воздуха - температура, измеренная на высоте 2 м над землей.
Td - Температура точки росы - температура, при понижении до которой содержащийся в воздухе водяной пар достигнет насыщения.
f - Относительная влажность воздуха - влажноcть воздуха, измеренная на высоте 2 м над землей.
Te - Эффективная температура - температура, которую ощущает одетый по сезону человек в тени. Характеристика душности погоды. При расчете учитывается влияние влажности воздуха и скорости ветра на теплоощущения человека.
Tes - Эффективная температура на солнце - температура, которую ощущает человек, с поправкой на солнечный нагрев. Характеристика знойности погоды. Зависит от высоты солнца над горизонтом, облачности и скорости ветра. Ночью, в пасмурную погоду, а также при ветре 12 м/с и более поправка равна нулю.
P - Атмосферное давление - приведенное к уровню моря атмосферное давление.
Po - Атмосферное давление - измеренное на уровне метеостанции атмосферное давление.
Tmin - Минимальная температура - минимум температуры воздуха на высоте 2 м над землей.
Tmax - Максимальная температура - максимум температуры воздуха на высоте 2 м над землей.
R - Количество осадков - Количество выпавших осадков за период времени, мм. При наведении курсора мыши на число - период времени, за который выпало указанное количество осадков.
R24 - Количество осадков - Количество выпавших осадков за 24 часа, мм.
S - Снежный покров - Высота снежного покрова, см. При наведении курсора мыши на число - состояние снежного покрова и степень покрытия местности в баллах.